OCO 2

Last updated on Sun Jun 21 2026 00:03:39 GMT+0000 (Coordinated Universal Time)

1 40059U 14035A 26171.38294918 .00000282 00000+0 72614-4 0 9997 2 40059 98.2017 112.6273 0001513 84.7645 275.3726 14.57113403636515
UTC large
Height (km)
Speed (km/s)
/
Latitude / Longitude
Inclination (degrees)
Orbital Period (minutes)
Azimuth
Elevation
Range (km)
Doppler Factor

Next 0 passes for location: London (51.5072 / 0.1276)

No passes found over London.
OCO 2